Temperature
20 19 19 19 19 19 19 19 20 20 20 20 20 20 19 19 19 19 19 19 19 19 19 19 19 19 19 19 19 19 19 19 19 19 19 19 19 18 18 18 18 18 18
20 20 19 19 19 20 20 20 20 20 20 20 20 20 19 19 19 19 19 19 19 19 19 19 19 19 19 19 19 19 19 19 19 19 19 19 19 18 18 18 18 18 18
20 20 20 20 20 20 20 20 20 20 20 20 20 19 19 19 19 19 19 19 19 19 19 19 19 19 19 19 19 19 19 19 19 19 19 19 19 18 18 18 18 18 18
20 20 20 20 19 19 19 19 19 19 19 19 19 19 19 19 19 19 19 19 19 19 19 19 19 19 19 19 19 19 19 18 18 19 19 19 19 18 18 18 18 18 18
19 19 19 19 19 19 19 19 19 19 19 19 19 19 19 19 19 19 19 19 19 19 19 19 19 19 19 19 19 19 19 18 18 18 19 19 19 18 18 18 18 18 18
19 19 19 19 19 19 19 19 19 19 19 19 19 19 19 19 19 19 19 19 19 19 19 19 19 18 18 18 18 18 18 18 18 18 18 19 19 18 18 18 18 18 18
19 19 19 19 19 19 19 19 19 19 19 19 19 19 19 19 19 19 19 19 19 19 19 19 18 18 18 18 18 18 18 18 18 18 18 18 18 18 18 18 18 18 18
18 18 18 18 18 18 18 18 18 19 19 19 19 19 19 19 19 19 19 19 18 18 18 18 18 18 18 18 18 18 18 18 18 18 18 18 18 18 18 18 18 18 18
18 18 18 18 18 18 18 18 18 18 18 18 18 19 19 19 19 19 19 18 18 18 18 18 18 18 18 18 18 18 18 18 18 18 18 18 18 18 18 18 18 18 18
18 18 17 18 18 18 18 18 18 18 18 18 18 18 18 18 18 18 18 18 18 18 18 18 18 18 18 18 18 18 18 18 18 18 18 18 18 18 18 18 18 18 18
17 17 17 17 17 17 17 17 18 18 18 18 18 18 18 18 18 18 18 18 18 18 18 18 18 18 18 18 18 18 18 18 18 18 18 18 18 18 18 18 18 18 18
17 17 17 17 17 17 17 17 17 17 18 18 18 18 18 18 18 18 18 18 18 18 18 18 18 18 18 18 18 18 18 18 18 18 18 18 18 18 18 18 18 18 18
16 16 16 16 16 16 16 17 17 17 17 17 17 17 17 17 17 17 18 18 18 18 18 18 18 18 18 18 18 18 18 18 18 18 18 18 18 18 18 18 18 18 18
16 16 15 16 16 16 16 16 16 17 17 17 17 17 17 17 17 17 17 18 18 18 18 18 18 18 18 18 18 18 18 18 18 18 18 18 18 18 18 18 18 18 18
15 15 15 15 15 15 15 16 16 16 16 16 16 17 17 17 17 17 17 17 17 18 18 18 18 18 18 18 18 18 18 18 18 18 18 17 17 17 17 17 17 17 18
15 15 15 15 15 15 15 15 15 15 16 16 16 16 16 16 17 17 17 17 17 17 17 17 18 18 18 18 18 18 18 18 18 18 18 17 17 17 17 17 17 17 17
14 14 14 14 14 14 15 15 15 15 15 15 15 16 16 16 16 17 17 17 17 17 17 17 17 18 18 18 18 18 18 18 18 18 18 17 17 17 17 17 17 17 17
14 14 14 14 14 14 14 14 14 14 14 15 15 15 15 16 16 16 16 17 17 17 17 17 17 17 18 18 18 18 18 18 18 18 18 18 17 17 17 17 17 17 17
13 13 13 13 13 13 14 14 14 14 14 14 14 15 15 15 15 16 16 16 17 17 17 17 17 17 17 17 18 18 18 18 18 18 18 18 18 17 17 17 17 17 17
13 13 13 13 13 13 13 13 13 13 14 14 14 14 14 15 15 15 15 16 16 16 17 17 17 17 17 17 17 17 17 18 18 18 18 18 17 17 17 17 17 17 17
13 13 13 13 13 13 13 13 13 13 13 13 14 14 14 14 14 15 15 15 16 16 16 16 17 16 17 17 17 17 17 17 17 17 17 17 17 17 17 17 17 17 17
13 13 13 12 12 12 12 12 12 12 13 13 13 13 13 14 14 14 15 15 15 15 16 16 16 16 16 16 16 16 16 16 17 17 17 17 17 17 17 17 17 17 17
13 13 12 12 12 12 12 12 12 12 13 13 13 13 13 13 14 14 14 14 15 15 15 15 15 16 16 16 16 16 16 16 16 17 17 17 17 17 17 17 17 17 17
13 13 12 12 12 12 12 12 12 12 12 12 12 13 13 13 13 13 14 14 14 15 15 15 15 15 15 15 16 16 16 16 16 16 17 17 17 17 17 17 17 17 17
13 13 12 12 12 12 12 12 12 12 12 12 12 12 13 13 13 13 13 14 14 14 14 15 15 15 15 15 15 15 15 15 16 16 16 17 17 17 17 17 17 17 17
13 13 12 12 12 12 12 12 12 12 12 12 12 12 12 12 13 13 13 13 14 14 14 14 15 15 15 15 15 15 15 15 15 16 16 16 16 17 17 17 17 17 17
Wind_Speed
3 4 7 8 9 9 9 10 10 10 9 10 10 9 9 9 8 7 7 6 6 6 5 6 6 6 6 6 6 6 6 6 6 7 7 7 7 6 7 7 8 8 9
5 6 8 9 9 8 9 9 9 9 9 9 8 8 8 7 7 7 6 6 5 5 4 5 5 5 5 5 5 6 6 6 5 6 6 7 7 6 7 8 7 7 9
5 6 8 8 9 9 8 8 8 8 8 8 8 7 8 7 7 6 6 5 5 4 4 4 4 4 4 4 5 5 5 5 5 6 6 5 5 6 6 7 7 7 7
6 6 7 8 8 9 8 8 8 8 8 8 7 7 7 7 6 6 5 5 5 5 4 4 3 3 3 3 4 4 5 4 5 5 4 4 3 5 6 6 6 6 7
5 5 6 8 8 8 8 8 8 8 8 8 7 7 7 7 6 6 6 5 5 5 4 4 3 2 2 2 3 4 4 4 5 5 5 4 3 4 5 6 6 6 6
2 3 5 7 7 7 8 8 8 8 8 8 8 8 7 7 7 6 7 6 6 5 5 4 3 2 1 1 2 3 4 4 5 5 4 3 2 4 5 5 5 6 6
3 3 2 2 4 5 7 8 8 8 8 8 8 8 8 8 8 7 7 7 7 6 6 5 4 3 2 1 1 2 3 3 5 4 3 2 2 4 5 5 6 6 6
5 5 6 4 3 3 4 6 8 8 9 9 10 9 9 9 9 9 8 8 7 7 6 6 5 4 3 2 1 1 2 2 4 3 3 2 2 4 5 5 6 6 7
7 6 7 7 6 5 5 6 7 9 10 10 11 11 11 10 10 10 9 9 8 8 8 7 6 6 5 4 2 2 1 1 3 3 3 3 3 4 4 5 6 7 7
7 7 8 9 9 9 8 8 8 8 8 9 10 11 11 12 11 11 11 10 10 9 9 9 8 7 6 5 4 2 1 0 2 3 2 4 4 5 5 5 6 7 7
8 6 6 7 8 9 9 8 9 9 8 8 9 11 12 10 10 10 11 12 12 11 11 10 9 8 7 5 4 3 1 1 2 3 4 5 5 5 6 6 6 7 7
7 7 5 6 7 8 7 8 8 8 8 7 7 8 9 9 10 10 11 13 14 13 12 12 11 9 7 4 4 3 2 3 3 4 5 6 6 6 6 6 7 7 7
5 7 7 6 7 7 6 7 6 6 6 7 7 8 7 7 7 8 8 10 12 12 11 10 9 7 6 4 4 3 3 4 5 5 6 8 8 7 7 7 7 8 8
6 7 7 6 6 7 7 6 5 5 5 5 7 7 5 4 4 5 5 7 8 8 7 7 6 7 6 6 5 5 5 5 6 7 8 9 8 8 8 8 8 8 8
6 7 7 6 6 6 5 5 5 5 5 6 6 6 5 3 4 3 4 6 7 8 7 5 6 6 5 5 6 6 6 7 8 8 8 9 10 9 9 9 9 9 9
7 8 7 7 6 6 5 4 5 6 6 6 6 7 6 5 4 3 4 4 5 7 7 6 6 5 5 4 5 5 6 7 8 9 9 10 10 11 11 10 10 10 10
6 7 8 8 7 7 7 6 5 6 7 5 6 7 7 6 5 4 4 4 4 7 7 5 5 4 4 4 5 5 5 7 7 9 9 9 9 11 12 12 11 11 11
6 7 7 8 9 8 7 6 6 6 6 5 6 7 7 7 6 4 4 4 5 5 4 4 4 4 4 4 3 3 4 4 6 8 9 9 9 9 11 12 12 11 11
6 6 7 8 8 9 8 6 6 6 5 5 6 6 7 7 6 4 4 4 4 4 4 5 4 4 4 4 3 2 2 3 4 6 6 8 9 10 10 11 12 12 12
6 6 7 8 8 8 7 5 5 5 4 4 4 5 6 6 6 4 3 4 4 4 4 4 4 4 4 4 3 1 1 2 2 4 5 6 8 9 10 9 10 11 12
6 7 7 8 8 7 5 5 5 5 5 5 4 5 6 5 5 3 3 3 3 4 5 5 4 4 3 3 2 0 1 0 2 3 3 4 5 8 9 9 9 9 9
7 7 7 8 8 7 5 5 4 5 5 4 4 5 6 5 5 3 3 3 3 3 4 4 4 3 3 4 3 2 1 1 2 2 3 4 5 5 6 9 10 10 10
8 8 8 8 9 8 7 5 5 4 4 4 4 5 5 6 5 4 3 3 3 3 4 5 5 5 4 4 3 4 4 4 2 1 3 4 4 4 5 6 8 10 10
8 8 7 8 8 8 7 6 6 4 4 5 5 5 6 5 5 4 3 2 2 3 4 4 5 5 5 4 3 3 2 3 3 2 1 2 3 4 5 5 6 8 10
7 7 7 8 7 7 7 6 6 5 4 5 5 6 5 5 4 4 3 2 2 2 3 4 4 5 5 5 4 3 2 1 1 2 2 2 1 2 3 4 4 5 8
7 7 7 8 8 8 8 7 6 7 7 7 7 6 5 4 4 4 3 2 2 2 3 3 4 5 5 5 5 4 4 4 4 3 3 2 2 2 2 3 3 4 6
Wind_Direction
195 192 172 157 155 156 154 151 149 146 145 145 143 142 141 140 141 140 138 134 130 126 121 111 104 97 92 87 83 79 76 77 80 85 86 85 86 91 99 104 107 105 109
159 170 169 164 161 161 159 158 158 156 155 153 152 151 148 148 147 145 147 147 142 136 129 123 114 105 96 90 82 75 70 72 84 93 89 82 83 93 102 106 109 114 114
137 160 167 169 168 169 168 166 166 166 165 162 161 159 157 159 158 156 155 156 156 154 147 139 129 116 105 94 80 69 61 66 90 99 91 77 82 94 102 111 113 117 119
144 158 170 177 177 177 178 178 178 177 176 173 171 170 169 169 171 173 173 172 170 168 162 157 146 128 112 94 77 63 54 66 94 104 95 80 85 102 105 112 116 121 123
148 163 181 186 186 186 185 187 189 189 189 189 188 187 184 184 186 187 186 186 185 182 178 175 168 155 125 91 68 58 52 73 98 101 103 88 82 105 112 116 119 121 123
110 161 195 194 195 196 196 197 200 201 201 201 200 199 198 199 200 201 198 195 197 199 197 195 196 193 179 99 57 51 52 86 106 105 108 101 97 114 120 119 122 126 130
46 35 1 237 221 217 214 212 212 212 213 213 212 211 210 212 214 214 210 208 206 207 209 207 213 219 226 249 21 38 52 94 124 123 126 126 139 130 124 124 124 128 132
47 31 20 3 344 303 260 241 231 226 225 224 223 221 220 222 222 221 220 218 217 215 215 214 222 233 242 259 303 8 38 71 135 141 158 174 175 139 130 131 127 127 130
41 32 16 2 347 331 311 286 261 246 239 235 234 232 229 228 229 228 229 226 224 225 224 223 227 238 248 256 272 303 354 74 143 163 180 200 196 158 139 131 129 130 129
36 31 16 8 2 350 333 314 301 282 265 253 245 242 239 237 236 236 235 233 230 231 234 232 233 239 246 252 262 276 309 90 176 194 204 216 203 172 152 141 136 132 130
23 16 10 3 358 351 339 331 325 311 296 282 266 256 248 242 243 243 241 240 240 238 239 237 237 240 245 251 261 270 276 243 226 219 220 222 208 184 164 153 145 140 136
6 358 359 353 348 346 342 335 331 323 311 303 292 274 257 242 239 242 245 248 248 246 244 240 239 240 241 240 259 272 257 253 242 233 231 225 212 196 178 165 156 148 143
354 355 351 344 343 340 333 329 325 321 312 305 299 287 270 253 247 248 243 250 253 253 248 242 239 230 220 216 227 239 244 245 242 240 236 228 217 205 191 176 166 159 153
357 348 341 342 343 340 337 326 318 321 317 309 301 296 280 258 243 239 240 242 241 240 236 226 218 215 213 217 221 230 237 236 239 239 238 233 224 212 201 188 177 171 165
351 344 338 334 336 334 332 327 330 317 309 306 305 302 293 267 254 246 239 240 237 232 226 218 211 209 209 214 220 226 231 233 235 235 235 235 229 218 208 196 187 179 173
343 339 334 331 333 334 326 316 311 312 307 303 298 295 291 272 259 249 245 238 235 231 228 221 213 210 210 205 217 221 230 233 232 229 229 232 230 222 214 204 197 189 182
331 330 331 331 340 332 323 314 314 307 304 296 292 291 285 272 259 251 245 241 235 230 226 220 214 202 209 209 219 222 223 228 225 221 219 219 223 223 217 210 203 197 191
331 328 327 339 337 330 322 312 309 308 305 298 298 295 290 280 266 255 248 245 237 228 216 210 204 197 210 208 213 223 224 221 219 217 211 211 211 215 218 215 207 202 198
327 325 328 331 331 328 321 314 308 307 303 303 302 299 294 286 274 256 249 251 240 226 220 221 206 192 208 210 211 219 224 226 221 215 206 207 207 207 210 216 213 207 203
323 324 326 328 329 327 322 321 317 316 313 309 302 300 299 291 283 267 249 245 235 224 220 213 202 194 201 196 210 216 221 235 220 216 212 205 206 208 208 209 212 213 210
326 331 330 329 329 334 332 330 324 319 315 313 305 308 308 302 293 274 262 248 231 224 222 210 192 190 197 163 143 120 348 302 228 223 209 202 206 208 205 206 204 206 211
323 326 326 326 325 330 324 309 291 290 292 291 300 318 319 315 307 286 256 247 234 228 219 206 186 174 187 170 156 136 199 293 266 228 200 211 211 196 203 209 204 203 205
324 324 326 323 325 326 327 321 318 313 309 322 326 324 320 320 312 302 271 249 236 220 220 212 198 184 190 192 180 161 167 209 225 255 217 213 204 198 204 203 205 205 205
317 321 323 324 326 327 333 337 335 330 318 307 309 308 314 320 319 316 307 281 256 237 227 220 207 197 185 190 191 192 170 160 169 197 250 209 196 202 202 206 205 205 205
317 325 326 329 329 333 340 342 338 330 312 308 312 318 323 324 325 326 321 305 280 252 238 227 211 197 192 188 181 172 168 172 173 163 202 210 206 211 201 201 198 201 205
323 331 334 337 333 338 344 346 347 341 335 337 335 333 330 326 329 334 325 316 295 270 250 235 216 203 202 194 185 178 172 177 186 175 186 197 208 219 198 195 202 203 201
Height
1544 1545 1547 1548 1549 1551 1552 1552 1553 1554 1554 1555 1555 1555 1555 1556 1556 1556 1556 1556 1556 1556 1556 1556 1556 1555 1555 1555 1555 1554 1554 1554 1553 1553 1552 1552 1552 1552 1552 1552 1552 1552 1553
1545 1546 1547 1549 1550 1551 1552 1553 1553 1554 1554 1555 1555 1555 1555 1555 1556 1556 1556 1556 1556 1556 1556 1556 1556 1556 1556 1556 1555 1555 1555 1554 1554 1554 1553 1553 1553 1553 1553 1553 1553 1553 1554
1546 1547 1548 1549 1550 1551 1552 1553 1553 1554 1554 1554 1554 1555 1555 1555 1555 1556 1556 1556 1556 1556 1556 1556 1556 1556 1556 1556 1556 1556 1556 1555 1555 1554 1554 1554 1553 1553 1553 1553 1553 1554 1554
1547 1548 1549 1550 1551 1551 1552 1552 1553 1553 1554 1554 1554 1554 1554 1555 1555 1555 1555 1555 1555 1556 1556 1556 1556 1556 1556 1556 1556 1556 1556 1556 1556 1555 1555 1554 1554 1554 1554 1554 1554 1554 1555
1548 1549 1550 1551 1551 1551 1552 1552 1553 1553 1553 1553 1553 1554 1554 1554 1554 1554 1554 1554 1555 1555 1555 1555 1556 1556 1556 1556 1556 1556 1556 1556 1556 1556 1555 1555 1554 1554 1554 1554 1555 1555 1555
1549 1550 1551 1551 1551 1552 1552 1552 1552 1552 1552 1552 1553 1553 1553 1553 1553 1553 1553 1553 1554 1554 1554 1555 1555 1555 1556 1556 1556 1556 1556 1556 1556 1556 1556 1555 1555 1555 1555 1555 1555 1555 1556
1550 1550 1551 1551 1551 1551 1551 1551 1551 1551 1551 1551 1551 1551 1551 1552 1552 1552 1552 1552 1552 1553 1553 1554 1554 1554 1555 1555 1556 1556 1556 1556 1557 1556 1556 1556 1555 1555 1555 1555 1556 1556 1557
1551 1550 1551 1551 1551 1550 1550 1550 1550 1550 1550 1550 1550 1550 1550 1550 1550 1550 1551 1551 1551 1552 1552 1552 1553 1553 1554 1555 1555 1555 1556 1556 1557 1557 1556 1556 1556 1556 1556 1556 1556 1557 1557
1551 1551 1550 1550 1550 1549 1549 1549 1549 1548 1548 1548 1548 1548 1548 1548 1548 1549 1549 1549 1550 1550 1551 1551 1551 1552 1553 1553 1554 1555 1555 1556 1556 1557 1557 1556 1556 1556 1556 1557 1557 1557 1558
1551 1550 1549 1549 1548 1548 1547 1547 1547 1546 1546 1546 1546 1546 1546 1546 1547 1547 1547 1548 1548 1548 1549 1549 1550 1551 1551 1552 1553 1553 1554 1555 1556 1557 1557 1557 1556 1556 1557 1557 1557 1558 1558
1551 1550 1549 1548 1547 1546 1545 1544 1544 1544 1544 1544 1543 1544 1544 1544 1544 1545 1545 1545 1546 1546 1547 1548 1548 1549 1550 1550 1551 1552 1553 1554 1555 1556 1556 1556 1556 1556 1557 1557 1557 1558 1559
1551 1550 1548 1547 1545 1544 1543 1542 1542 1541 1541 1541 1541 1541 1541 1541 1541 1542 1542 1543 1544 1544 1545 1546 1546 1547 1548 1549 1550 1551 1552 1553 1554 1555 1556 1556 1556 1556 1556 1557 1558 1558 1559
1551 1549 1548 1546 1544 1542 1541 1540 1539 1538 1538 1537 1537 1537 1537 1538 1538 1539 1540 1540 1541 1542 1542 1543 1544 1545 1546 1547 1548 1549 1551 1552 1553 1554 1555 1555 1555 1556 1556 1557 1557 1558 1559
1550 1548 1546 1544 1542 1540 1538 1537 1536 1535 1534 1534 1534 1534 1534 1534 1535 1536 1536 1537 1538 1539 1540 1541 1541 1542 1543 1545 1546 1547 1549 1550 1552 1553 1554 1555 1555 1555 1555 1556 1557 1558 1559
1549 1547 1545 1542 1540 1538 1536 1534 1533 1531 1530 1530 1530 1530 1530 1530 1531 1532 1533 1534 1535 1536 1537 1538 1539 1540 1541 1542 1544 1545 1547 1549 1550 1552 1553 1554 1554 1554 1555 1555 1556 1557 1558
1548 1546 1543 1540 1538 1535 1533 1531 1529 1528 1527 1526 1526 1526 1526 1526 1527 1528 1529 1530 1531 1532 1534 1535 1536 1537 1538 1540 1541 1543 1545 1547 1548 1550 1551 1552 1553 1553 1554 1554 1555 1556 1558
1547 1544 1542 1538 1536 1533 1530 1528 1526 1524 1523 1522 1522 1522 1522 1522 1523 1523 1524 1526 1527 1529 1530 1531 1533 1534 1535 1537 1539 1540 1542 1544 1546 1548 1549 1550 1551 1552 1553 1553 1554 1555 1557
1546 1543 1540 1537 1533 1530 1527 1525 1523 1521 1519 1518 1518 1517 1517 1518 1518 1519 1520 1521 1523 1524 1525 1527 1529 1530 1532 1534 1536 1538 1540 1542 1544 1545 1547 1548 1550 1550 1551 1552 1553 1554 1555
1545 1542 1538 1535 1531 1528 1525 1522 1520 1518 1516 1515 1514 1513 1513 1513 1514 1514 1515 1516 1518 1519 1521 1522 1524 1526 1528 1530 1532 1534 1537 1539 1541 1542 1544 1546 1547 1548 1549 1551 1552 1553 1554
1544 1540 1537 1533 1530 1526 1523 1520 1518 1515 1513 1511 1510 1509 1509 1509 1509 1510 1511 1512 1513 1515 1516 1518 1519 1521 1524 1526 1528 1530 1533 1535 1537 1539 1541 1543 1545 1546 1547 1549 1550 1551 1552
1543 1539 1535 1532 1528 1524 1521 1518 1515 1512 1511 1509 1507 1506 1505 1505 1505 1506 1506 1507 1509 1510 1512 1514 1515 1517 1519 1522 1524 1526 1528 1530 1532 1535 1537 1539 1542 1544 1545 1547 1548 1549 1550
1541 1538 1534 1531 1527 1523 1520 1517 1514 1511 1508 1506 1504 1503 1502 1502 1502 1502 1503 1503 1504 1506 1507 1509 1511 1512 1515 1517 1520 1522 1524 1527 1528 1531 1533 1536 1538 1540 1542 1544 1546 1547 1548
1540 1537 1533 1530 1526 1522 1519 1516 1513 1510 1507 1504 1502 1501 1500 1499 1499 1499 1499 1499 1500 1502 1503 1504 1506 1508 1510 1513 1515 1518 1520 1521 1524 1526 1528 1531 1534 1537 1539 1541 1543 1544 1546
1540 1536 1533 1529 1526 1522 1518 1515 1511 1508 1505 1503 1501 1499 1498 1497 1496 1495 1495 1496 1497 1498 1499 1500 1502 1504 1506 1508 1511 1513 1516 1518 1520 1521 1524 1527 1530 1532 1535 1537 1539 1541 1543
1540 1536 1532 1529 1525 1522 1518 1515 1511 1508 1505 1503 1500 1498 1496 1495 1494 1493 1493 1492 1493 1494 1495 1496 1498 1499 1501 1503 1506 1508 1511 1514 1516 1518 1519 1522 1525 1528 1531 1533 1536 1538 1540
1539 1536 1532 1528 1525 1522 1518 1514 1511 1508 1505 1502 1499 1497 1495 1493 1492 1491 1490 1490 1490 1491 1492 1493 1494 1495 1497 1499 1502 1504 1506 1509 1512 1514 1516 1518 1520 1524 1526 1529 1531 1534 1536